Home   Weather   Leimen   Past weeks

Flag for Germany Past Weather in Leimen, Baden-Württemberg, Germany — Yesterday and Last 2 Weeks

Now
45 °F

Passing clouds.


Feels Like: 40 °F
Forecast: 31 / 62 °F
Wind: 9 mph from North

Location: Mannheim City

Current Time: Apr 23, 2017 at 10:32:30 am

Latest Report: Apr 23, 2017 at 9:50 am


Visibility: N/A

Pressure: 30.30 "Hg

Humidity: 61%

Dew Point: 32 °F

Location of LeimenLocation

Past Weather in Leimen — Graph

°F

Leimen Temperature Yesterday

Maximum temperature yesterday: 55 °F (at 10:50 am)
Minimum temperature yesterday: 50 °F (at 12:50 pm)
Average temperature yesterday: 52 °F

High & Low Weather Summary for the Past Weeks

 TemperatureHumidityPressure
High61 °F (Apr 21, 3:20 pm)93% (Apr 20, 5:50 am)30.60 "Hg (Apr 20, 5:50 am)
Low28 °F (Apr 20, 5:50 am)28% (Apr 21, 12:50 pm)30.21 "Hg (Apr 22, 11:50 am)
Average48 °F51%30.43 "Hg
* Reported Apr 19 9:20 am — Apr 23 9:20 am, Leimen, Weather by CustomWeather, © 2017

Note: Actual official high and low records may vary slightly from our data, if they occured in-between our weather recording intervals... More about our weather records

Advertising

Leimen Weather History for the Previous 24 Hours

Scroll right to see more
 ConditionsComfort  
Time TempWeatherWind HumidityBarometerVisibility
9:20 am
Sun, Apr 23
45 °FScattered clouds.6 mph61%30.30 "HgN/A
8:50 am45 °FPassing clouds.7 mph66%30.30 "HgN/A
8:20 am43 °FScattered clouds.1 mph66%30.30 "HgN/A
7:50 am41 °FSunny.3 mph70%30.30 "Hg10 mi
7:20 am39 °FSunny.3 mph75%30.27 "Hg10 mi
7:50 pm
Sat, Apr 22
52 °FPassing clouds.9 mph44%30.21 "HgN/A
7:20 pm52 °FSunny.15 mph44%30.21 "Hg10 mi
6:50 pm52 °FPassing clouds.14 mph44%30.21 "HgN/A
6:20 pm54 °FPartly sunny.13 mph47%30.21 "HgN/A
5:50 pm54 °FPartly sunny.14 mph47%30.21 "HgN/A
5:20 pm52 °FPartly sunny.15 mph47%30.21 "HgN/A
4:50 pm52 °FPartly sunny.16 mph50%30.21 "HgN/A
4:20 pm52 °FScattered clouds.10 mph58%30.21 "HgN/A
3:50 pm50 °FPartly sunny.7 mph67%30.24 "HgN/A
3:20 pm50 °FOvercast.10 mph62%30.24 "HgN/A
2:50 pm50 °FPartly sunny.13 mph62%30.24 "HgN/A
2:20 pm50 °FPartly sunny.15 mph62%30.24 "HgN/A
1:50 pm50 °FBroken clouds.15 mph67%30.24 "HgN/A
1:20 pm50 °FPartly sunny.15 mph67%30.24 "HgN/A
12:50 pm50 °FPartly sunny.17 mph71%30.24 "HgN/A
12:20 pm52 °FPartly sunny.15 mph72%30.21 "HgN/A
11:50 am55 °FPartly sunny.10 mph59%30.21 "HgN/A
11:20 am55 °FPassing clouds.10 mph59%30.24 "HgN/A
10:50 am55 °FPartly sunny.9 mph59%30.24 "HgN/A
10:20 am54 °FPartly sunny.8 mph63%30.24 "HgN/A
Weather by CustomWeather, © 2017

See weather overviewHow to use our weather pages